Regional Weather Roundup
Issued by NWS Sterling, VA

Home | Current Version | Previous Version | Text Only | Print | Product List | Glossary Off
Versions: 1 2 3 4 5 6 7 8 9 10 11 12 13 14 15 16 17 18 19 20 21 22 23 24 25 26 27 28 29 30 31 32 33 34 35 36 37 38 39 40 41 42 43 44 45 46 47 48 49 50

000
ASUS41 KLWX 032310
RWRLWX

REGIONAL WEATHER ROUNDUP
NATIONAL WEATHER SERVICE BALTIMORE MD/WASHINGTON DC
700 PM EDT MON AUG 03 2015

Note: "FAIR" indicates few or no clouds below 12,000 feet
with no significant weather and/or obstructions to visibility.
 TC=TEMPERATURE CELSIUS

 * =Non NWS site. Station does not report precipitation (e.g. rain,
    snow, etc.), thunder, or fog.

DCZ001-MDZ009-015-VAZ040>042-051-053>054-040000-
WASHINGTON METRO

CITY           SKY/WX    TMP DP  RH WIND       PRES   REMARKS
WASHINGTON NAT MOSUNNY   90  67  46 S13       29.81F HX  93
DULLES         MOSUNNY   86  63  45 S12       29.82R
ANDREWS AFB    SUNNY     88  65  46 S14       29.82S
FT BELVOIR     SUNNY     87  66  50 VRB2      29.82S
QUANTICO       PTSUNNY   92  63  37 W7        29.79F HX  92
COLLEGE PARK*  SUNNY     90  61  37 S8        29.81S
LEESBURG*      SUNNY     90  66  45 SW13      29.83S HX  92
MANASSAS*      SUNNY     88  64  45 S6        29.82S
GAITHERSBURG*  MOSUNNY   86  61  42 S7        29.86R

$$

MDZ006>007-011-014-040000-
BALTIMORE METRO

CITY           SKY/WX    TMP DP  RH WIND       PRES   REMARKS
BWI AIRPORT    MOSUNNY   87  63  44 S8        29.80F
MD SCIENCE CTR   N/A     89  61  38 MISG      29.80F
MARTIN STATE   MOSUNNY   88  66  48 S9        29.82R HX  90
ANNAPOLIS      SUNNY     87  62  43 S7        29.81S
FORT MEADE*    MOSUNNY   82  64  54 SW6       29.83F

$$

MDZ012-015-019>023-040000-
MARYLAND EASTERN SHORE

CITY           SKY/WX    TMP DP  RH WIND       PRES   REMARKS
OCEAN CITY     PTSUNNY   82  75  79 S10G18    29.84F
SALISBURY      MOSUNNY   85  72  65 S10       29.83F HX  91
BAY BRIDGE AP*   N/A     88  63  42 S6        29.82S
CAMBRIDGE*     SUNNY     86  70  58 S9        29.83S HX  90

$$

MDZ017>025-040000-
SOUTHERN MARYLAND

CITY           SKY/WX    TMP DP  RH WIND       PRES   REMARKS
PATUXENT RIVER MOSUNNY   86  71  60 S6        29.83S HX  91
ST INIGOES     SUNNY     86  72  62 S9        29.83S HX  92
LEONARDTOWN*   SUNNY     86  70  58 S5        29.85S HX  90

$$

MDZ003>005-040000-
NORTH CENTRAL MARYLAND

CITY           SKY/WX    TMP DP  RH WIND       PRES   REMARKS
FREDERICK*     MOSUNNY   86  66  51 S7        29.83R
HAGERSTOWN APT CLOUDY    88  62  41 S8        29.81R
WESTMINSTER*   MOSUNNY   88  63  42 S8        29.83R

$$

MDZ501>502-040000-
WESTERN MARYLAND

CITY           SKY/WX    TMP DP  RH WIND       PRES   REMARKS
OAKLAND*       MOSUNNY   73  70  88 SW9       29.96R
CUMBERLAND*    SUNNY     86  61  42 W5        29.87R

$$

VAZ025>031-040000-
SHENANDOAH VALLEY

CITY           SKY/WX    TMP DP  RH WIND       PRES   REMARKS
WINCHESTER*    PTSUNNY   86  64  48 S5        29.83R
FRONT ROYAL*   FAIR      82  66  57 S5        29.82S
LURAY*         FAIR      88  61  40 SW9       29.84S
NEW MARKET*    MOCLDY    85  65  50 SW5       29.82S
STAUNTON*      MOSUNNY   89  58  34 SW10      29.90R
WAYNESBORO*    FAIR      84  59  43 SW8       29.90S

$$

WVZ021-048>050-054>055-040000-
EASTERN WEST VIRGINIA PANHANDLE

CITY           SKY/WX    TMP DP  RH WIND       PRES   REMARKS
MARTINSBURG    CLOUDY    88  58  36 W6        29.81S
PETERSBURG*    SUNNY     85  63  48 W3        29.85R

$$

VAZ036>039-050-040000-
CENTRAL FOOTHILLS

CITY           SKY/WX    TMP DP  RH WIND       PRES   REMARKS
CHARLOTTESVILL MOSUNNY   86  62  44 SW9       29.85S
CULPEPER*      SUNNY     87  64  46 S6        29.83S
ORANGE*        MOSUNNY   88  64  45 S3        29.85S
GORDONSVILLE*  FAIR      86  64  48 SW6       29.84R
WARRENTON*     FAIR      88  69  53 CALM      29.82S HX  92

$$

VAZ055>057-040000-
NORTH AND CENTRAL PIEDMONT

CITY           SKY/WX    TMP DP  RH WIND       PRES   REMARKS
FREDERICKSBRG* SUNNY     88  70  54 S7        29.82R HX  93
STAFFORD*      SUNNY     85  64  49 S3        29.87S

$$

NCZ024-NYZ072-PAZ021-071-VAZ022-071-040000-
OTHER REGIONAL OBSERVATIONS

CITY           SKY/WX    TMP DP  RH WIND       PRES   REMARKS
NEW YORK CITY  PTSUNNY   86  59  39 VRB7      29.80S
PHILADELPHIA   MOSUNNY   89  63  41 SW15      29.80S HX  90
PITTSBURGH     PTSUNNY   74  68  81 S6        29.83S
ROANOKE        PTSUNNY   89  56  32 W8        29.91S
RICHMOND       MOSUNNY   89  68  49 SW12G20   29.85S HX  93
RALEIGH        MOSUNNY   90  65  43 S7        29.89R HX  92

$$

ANZ530>537-040000-
MARINE OBSERVATIONS

STATION/POSITION TIME  TEMP    WIND        PRES
                       AIR SEA DIR/SP/G
                 (UTC) (F)     (DEG/KT/KT) (MB)
THOMAS PT LIGHT  NOT AVBL
BALT KEY BRIDGE  2200   87     180/ 15/ 17 1008.9F
COVE POINT       2200   87     230/ 13/ 17 1010.8S
LEWISETTA        2200   87 86  230/ 10/ 12 1009.9F
SOLOMONS ISLAND  2200      84                N/A
PINEY POINT      2200          220/ 12/ 13   N/A

$$




USA.gov is the U.S. government's official web portal to all federal, state and local government web resources and services.